sat.trackr.live / text

‹ back to catalog

STARLINK-32757

NORAD 62492 · 2025-003F

PAYLOAD ACTIVE UNKNOWN

§ Identity

Operator
Country
US
Launch date
2025-01-06
Launch site
AFETR
Launch vehicle
Mass (kg)
RCS (m²)

Purposes: comms

External: N2YO · Heavens-Above · Gunter

§ Orbital elements

Epoch: 2026-09-21T16:21:36.010656Z

Period
94.27 min
Inclination
42.9982°
Eccentricity
0.0001072
Mean motion
15.27584016 rev/d
Perigee alt
482.3 km
Apogee alt
483.8 km
Semi-major
6,861.2 km
B*
3.2996e-4
RAAN
262.3113°
Arg perigee
266.7420°
Mean anomaly
93.3309°
Rev number
9,652

§ Raw data

STARLINK-327571 62492U 25003F   26264.68166679  .00008830  00000+0  32996-3 0  99922 62492  42.9982 262.3113 0001072 266.7420  93.3309 15.27584016 96522

JSON: /api/v1/satellites/62492 · /tle

For live sub-satellite position, see the globe view (requires WebGL).

§ Visibility from observer

Set your observer location to see the next 7 days of passes ≥ 10°. The values pass through the URL so the page stays shareable.

No JS? Fill the form by hand. The geolocation button needs JavaScript.